Temp
-12 -12 -12 -12 -13 -13 -12 -12 -12 -11 -11 -11 -11 -11 -11 -11 -11 -11 -11 -11 -10 -10 -11 -11 -11 -11 -11 -11 -11 -11 -11 -11 -11 -11 -11 -11 -11 -11 -11 -11 -11 -11
-11 -12 -12 -13 -13 -13 -13 -12 -12 -11 -11 -11 -10 -11 -11 -11 -11 -10 -10 -11 -11 -10 -10 -11 -11 -11 -11 -10 -11 -11 -11 -11 -11 -11 -11 -11 -11 -11 -11 -11 -11 -11
-11 -11 -11 -12 -13 -13 -13 -12 -12 -12 -11 -11 -11 -10 -11 -11 -11 -10 -10 -10 -10 -10 -10 -10 -10 -10 -10 -10 -10 -11 -11 -11 -11 -11 -11 -11 -11 -11 -11 -11 -11 -11
-12 -12 -11 -11 -12 -12 -12 -12 -12 -11 -11 -11 -11 -10 -10 -11 -10 -10 -10 -10 -10 -10 -10 -10 -10 -10 -10 -10 -10 -11 -11 -11 -11 -11 -11 -11 -11 -11 -11 -11 -11 -11
-12 -12 -12 -12 -11 -11 -11 -11 -12 -11 -11 -11 -11 -11 -10 -10 -10 -10 -10 -10 -10 -10 -10 -10 -10 -10 -10 -10 -10 -10 -10 -10 -11 -11 -11 -11 -11 -11 -11 -11 -11 -11
-12 -12 -12 -12 -12 -11 -11 -10 -11 -11 -11 -11 -11 -11 -10 -10 -10 -10 -10 -10 -10 -10 -10 -10 -10 -10 -10 -10 -10 -10 -10 -10 -10 -11 -11 -11 -11 -11 -11 -11 -11 -11
-12 -12 -12 -12 -12 -12 -12 -11 -11 -11 -10 -11 -11 -11 -11 -10 -10 -10 -10 -10 -10 -10 -10 -10 -10 -10 -10 -10 -10 -10 -10 -10 -10 -11 -11 -11 -11 -11 -11 -11 -11 -11
-12 -12 -12 -12 -12 -12 -12 -12 -12 -12 -11 -11 -11 -11 -11 -10 -10 -10 -10 -10 -10 -10 -10 -10 -10 -10 -10 -10 -10 -10 -10 -10 -10 -10 -10 -11 -11 -11 -11 -11 -11 -11
-12 -12 -12 -12 -12 -12 -12 -12 -12 -12 -12 -12 -12 -11 -11 -11 -11 -11 -10 -10 -10 -10 -10 -10 -10 -10 -10 -10 -10 -10 -10 -10 -10 -11 -11 -11 -11 -11 -11 -11 -11 -11
-13 -13 -12 -12 -12 -12 -12 -12 -12 -12 -12 -12 -12 -12 -11 -11 -11 -11 -10 -10 -10 -10 -10 -10 -10 -10 -10 -10 -10 -10 -10 -10 -10 -11 -11 -11 -11 -11 -11 -11 -11 -11
-13 -13 -13 -12 -12 -12 -12 -12 -12 -12 -12 -12 -11 -12 -12 -11 -11 -11 -11 -10 -10 -10 -10 -10 -10 -10 -10 -10 -10 -10 -10 -10 -10 -11 -11 -11 -11 -11 -11 -11 -11 -11
-13 -14 -14 -13 -13 -13 -12 -12 -12 -12 -12 -12 -12 -12 -12 -12 -11 -11 -11 -11 -11 -11 -11 -10 -10 -10 -10 -10 -10 -10 -10 -10 -10 -11 -11 -11 -11 -11 -11 -11 -11 -11
-13 -14 -14 -14 -13 -13 -13 -13 -12 -12 -12 -12 -12 -12 -12 -12 -12 -11 -11 -11 -11 -11 -11 -11 -10 -10 -11 -11 -11 -10 -10 -10 -10 -10 -11 -11 -11 -11 -11 -11 -11 -11
-14 -14 -14 -14 -14 -13 -13 -13 -13 -12 -12 -12 -12 -12 -12 -12 -12 -12 -11 -11 -11 -11 -11 -11 -11 -11 -11 -11 -11 -11 -11 -11 -10 -10 -11 -11 -11 -11 -11 -11 -11 -11
-14 -14 -14 -14 -14 -14 -13 -13 -13 -13 -13 -12 -12 -12 -12 -12 -12 -12 -12 -11 -11 -11 -11 -11 -11 -11 -11 -11 -11 -11 -11 -11 -11 -11 -11 -11 -11 -11 -11 -11 -11 -11
-14 -14 -14 -14 -14 -14 -13 -13 -13 -13 -13 -13 -12 -12 -12 -12 -12 -13 -12 -12 -12 -11 -11 -11 -11 -11 -11 -11 -11 -11 -11 -11 -11 -11 -11 -11 -11 -11 -11 -11 -11 -11
-14 -14 -14 -14 -14 -14 -13 -13 -13 -13 -13 -13 -12 -12 -12 -12 -12 -13 -13 -12 -12 -12 -12 -12 -11 -11 -11 -11 -11 -12 -11 -11 -11 -11 -11 -11 -11 -11 -11 -11 -11 -11
-15 -15 -14 -14 -14 -14 -13 -13 -13 -13 -13 -12 -12 -12 -12 -12 -12 -13 -12 -12 -12 -13 -13 -13 -12 -12 -12 -12 -12 -12 -12 -11 -11 -11 -11 -11 -11 -11 -11 -11 -11 -11
-15 -15 -15 -15 -14 -13 -13 -13 -13 -13 -13 -13 -13 -13 -13 -13 -12 -13 -13 -12 -13 -13 -13 -13 -13 -13 -13 -13 -13 -13 -12 -12 -11 -12 -12 -11 -11 -11 -11 -11 -11 -11
-15 -15 -15 -14 -13 -13 -13 -14 -14 -13 -13 -13 -13 -13 -13 -13 -13 -13 -13 -13 -13 -13 -13 -13 -13 -13 -13 -13 -13 -13 -13 -12 -12 -12 -12 -12 -12 -12 -11 -11 -11 -11
-16 -16 -15 -14 -14 -14 -14 -14 -14 -14 -14 -13 -13 -13 -13 -13 -13 -13 -13 -13 -13 -13 -13 -13 -13 -13 -13 -13 -13 -13 -13 -13 -13 -12 -12 -13 -12 -12 -12 -12 -11 -11
-16 -16 -15 -15 -14 -14 -15 -15 -14 -14 -14 -14 -14 -14 -14 -14 -14 -13 -13 -13 -13 -13 -13 -13 -13 -13 -13 -13 -13 -13 -12 -13 -13 -12 -12 -12 -12 -12 -12 -12 -12 -12
-16 -16 -16 -15 -15 -15 -15 -16 -15 -14 -14 -14 -14 -14 -14 -14 -14 -14 -14 -14 -14 -14 -14 -14 -13 -13 -13 -13 -13 -13 -12 -12 -12 -12 -12 -12 -12 -12 -13 -13 -13 -13
-17 -17 -16 -16 -16 -15 -16 -16 -15 -15 -14 -14 -14 -14 -14 -14 -14 -14 -14 -14 -14 -14 -14 -14 -13 -13 -13 -13 -13 -13 -13 -12 -13 -13 -13 -12 -12 -13 -13 -13 -13 -13
-18 -17 -17 -17 -16 -16 -16 -16 -15 -15 -15 -15 -15 -15 -14 -14 -14 -14 -14 -14 -14 -14 -14 -14 -14 -14 -14 -13 -13 -13 -13 -13 -13 -13 -13 -13 -13 -13 -14 -13 -13 -13
-18 -18 -17 -17 -17 -16 -16 -16 -16 -15 -15 -15 -15 -15 -15 -14 -14 -15 -15 -14 -15 -14 -14 -14 -14 -14 -14 -14 -13 -13 -13 -13 -13 -13 -13 -13 -13 -13 -13 -13 -13 -13
Height
5744 5747 5749 5751 5752 5752 5752 5753 5755 5755 5756 5757 5757 5757 5756 5756 5756 5757 5757 5757 5756 5756 5755 5755 5756 5757 5757 5758 5757 5757 5758 5759 5761 5762 5762 5764 5766 5768 5769 5771 5772 5774
5737 5739 5742 5745 5746 5747 5747 5748 5750 5751 5752 5753 5753 5754 5754 5753 5754 5754 5754 5755 5755 5754 5754 5754 5754 5755 5755 5756 5756 5756 5757 5757 5758 5760 5761 5762 5764 5766 5768 5769 5770 5772
5733 5733 5734 5737 5740 5741 5742 5743 5745 5746 5748 5749 5750 5750 5751 5751 5751 5751 5751 5752 5753 5753 5753 5752 5752 5752 5752 5753 5755 5755 5755 5755 5756 5758 5759 5760 5761 5763 5765 5767 5769 5770
5729 5730 5730 5731 5733 5735 5736 5738 5740 5742 5743 5744 5745 5746 5747 5748 5748 5748 5748 5749 5750 5751 5751 5751 5751 5751 5751 5751 5752 5753 5753 5753 5754 5756 5757 5758 5760 5762 5764 5765 5766 5768
5725 5727 5727 5727 5727 5728 5730 5732 5735 5737 5738 5739 5741 5742 5743 5744 5744 5745 5745 5745 5746 5748 5748 5749 5750 5750 5750 5750 5750 5751 5751 5751 5752 5754 5756 5757 5759 5760 5762 5763 5764 5766
5720 5722 5723 5724 5724 5724 5725 5726 5728 5730 5732 5734 5736 5738 5739 5740 5740 5741 5742 5742 5743 5744 5745 5747 5748 5749 5748 5748 5748 5748 5749 5750 5751 5753 5754 5755 5756 5758 5760 5761 5762 5764
5715 5716 5717 5720 5721 5722 5722 5723 5724 5725 5727 5729 5731 5733 5734 5735 5736 5737 5738 5739 5739 5740 5742 5743 5745 5746 5747 5747 5746 5746 5747 5749 5750 5751 5752 5753 5755 5756 5758 5759 5760 5762
5707 5709 5711 5713 5715 5716 5718 5721 5723 5724 5725 5727 5727 5728 5729 5729 5731 5733 5734 5735 5736 5737 5738 5739 5741 5743 5744 5745 5745 5745 5746 5747 5749 5750 5751 5752 5754 5755 5756 5757 5759 5760
5700 5701 5704 5706 5707 5709 5712 5716 5718 5720 5722 5725 5725 5725 5725 5724 5725 5728 5730 5731 5733 5734 5735 5735 5737 5738 5740 5742 5743 5744 5744 5745 5747 5748 5749 5751 5752 5752 5753 5755 5756 5758
5692 5694 5696 5699 5701 5702 5705 5709 5711 5712 5716 5719 5721 5722 5722 5721 5721 5722 5725 5727 5729 5730 5731 5732 5733 5734 5736 5738 5740 5741 5742 5742 5744 5746 5747 5748 5748 5749 5751 5752 5754 5756
5684 5687 5689 5691 5694 5696 5699 5702 5704 5707 5710 5712 5714 5716 5718 5718 5717 5718 5720 5722 5725 5726 5727 5728 5729 5731 5733 5735 5736 5738 5738 5739 5741 5742 5744 5745 5746 5747 5748 5750 5751 5753
5677 5680 5683 5685 5688 5691 5693 5696 5698 5700 5703 5705 5707 5709 5711 5712 5714 5715 5716 5717 5720 5722 5724 5725 5726 5727 5729 5731 5733 5734 5735 5736 5738 5739 5740 5742 5744 5745 5746 5747 5749 5750
5670 5673 5676 5679 5682 5685 5687 5689 5692 5693 5696 5699 5701 5703 5705 5708 5710 5712 5713 5713 5715 5718 5720 5721 5723 5724 5725 5727 5729 5731 5732 5733 5735 5736 5737 5739 5741 5742 5743 5745 5746 5748
5663 5666 5670 5673 5676 5678 5680 5683 5685 5687 5691 5694 5696 5697 5700 5703 5706 5708 5708 5709 5710 5713 5715 5717 5719 5720 5722 5723 5725 5727 5729 5730 5731 5733 5734 5736 5738 5739 5741 5742 5744 5745
5656 5660 5663 5667 5670 5673 5675 5677 5679 5682 5685 5688 5690 5691 5693 5696 5699 5702 5703 5704 5706 5708 5710 5712 5714 5716 5718 5719 5721 5723 5725 5727 5728 5729 5731 5733 5735 5736 5738 5740 5741 5743
5648 5653 5657 5660 5663 5667 5670 5671 5673 5675 5679 5682 5683 5684 5686 5688 5693 5697 5698 5699 5701 5703 5705 5706 5708 5710 5712 5714 5716 5718 5720 5722 5724 5726 5728 5730 5731 5733 5735 5737 5738 5740
5640 5645 5649 5653 5657 5661 5663 5665 5666 5669 5673 5676 5678 5679 5680 5681 5687 5693 5695 5696 5696 5698 5700 5701 5702 5703 5706 5709 5711 5713 5715 5717 5720 5722 5724 5726 5728 5730 5732 5734 5735 5737
5633 5638 5642 5646 5651 5655 5657 5659 5661 5663 5667 5671 5672 5673 5673 5676 5681 5686 5690 5692 5692 5694 5696 5698 5699 5701 5702 5704 5705 5708 5711 5714 5717 5719 5721 5723 5725 5727 5729 5730 5732 5733
5626 5631 5636 5642 5646 5649 5651 5653 5656 5659 5662 5664 5664 5666 5668 5671 5674 5678 5683 5686 5688 5690 5693 5695 5697 5700 5701 5701 5703 5704 5707 5711 5714 5716 5718 5720 5722 5724 5726 5727 5729 5730
5619 5623 5630 5636 5641 5642 5643 5646 5650 5653 5655 5657 5659 5661 5665 5668 5671 5673 5678 5681 5684 5688 5689 5690 5693 5697 5699 5700 5702 5704 5706 5709 5711 5713 5714 5716 5719 5721 5723 5724 5726 5728
5610 5615 5621 5628 5631 5633 5636 5639 5643 5647 5649 5652 5656 5659 5662 5665 5667 5670 5673 5677 5681 5684 5685 5687 5690 5693 5696 5698 5699 5702 5704 5707 5709 5711 5712 5714 5716 5719 5720 5722 5724 5725
5602 5607 5614 5619 5622 5625 5629 5634 5638 5642 5644 5648 5652 5655 5658 5661 5663 5665 5668 5671 5675 5679 5681 5684 5686 5689 5691 5694 5697 5699 5702 5704 5706 5708 5710 5711 5713 5715 5716 5718 5720 5722
5595 5600 5606 5611 5615 5618 5622 5627 5633 5637 5639 5642 5647 5650 5653 5655 5658 5661 5664 5667 5671 5675 5678 5681 5683 5685 5687 5691 5693 5696 5699 5701 5702 5705 5707 5708 5709 5712 5713 5714 5716 5717
5588 5593 5598 5604 5609 5614 5617 5621 5626 5631 5634 5637 5641 5644 5647 5650 5654 5657 5661 5665 5668 5672 5675 5678 5680 5682 5685 5688 5690 5692 5694 5697 5699 5701 5704 5706 5707 5710 5711 5712 5713 5715
5582 5586 5591 5597 5603 5608 5612 5616 5620 5625 5628 5631 5635 5639 5643 5647 5650 5653 5656 5661 5664 5668 5671 5675 5677 5679 5682 5685 5688 5690 5691 5693 5696 5698 5701 5703 5705 5707 5708 5710 5712 5713
5578 5581 5585 5590 5596 5602 5606 5610 5614 5618 5623 5627 5630 5634 5637 5641 5645 5648 5652 5656 5660 5663 5667 5671 5674 5676 5679 5682 5685 5687 5689 5690 5693 5695 5697 5699 5701 5704 5706 5708 5709 5710
Wind_Speed
35 34 33 30 28 28 28 26 21 19 18 18 17 16 16 19 20 19 18 17 15 14 12 13 13 13 14 16 18 19 20 20 21 23 24 23 22 21 20 19 18 18
38 36 34 32 30 30 30 28 24 20 19 19 18 17 16 17 19 20 21 19 18 15 13 12 12 13 15 16 18 19 19 20 21 22 23 24 23 21 20 19 18 18
44 40 36 32 31 32 33 31 28 23 21 20 19 18 18 18 19 20 21 22 20 18 15 12 11 12 14 16 18 18 18 19 21 22 23 24 23 22 20 19 18 18
48 44 40 36 33 34 35 34 31 27 24 22 21 20 19 19 19 20 21 23 23 21 18 15 12 12 14 16 17 17 16 17 21 22 22 23 22 22 20 18 18 18
50 48 45 41 38 37 36 36 33 30 27 25 23 21 21 20 20 20 21 22 24 24 21 18 14 12 13 15 17 17 15 15 19 21 21 22 23 22 20 19 18 18
48 49 49 46 43 42 40 37 35 33 30 28 26 24 22 21 21 21 20 21 25 26 24 21 17 14 14 14 15 17 15 14 17 21 22 23 23 22 20 19 19 18
47 47 50 49 47 46 44 41 38 36 33 30 28 26 25 23 22 22 20 20 23 26 25 23 19 17 15 14 15 15 15 15 17 20 23 23 22 21 20 19 18 18
51 49 49 50 50 50 47 43 41 38 35 33 31 29 28 26 24 24 22 20 21 24 26 25 23 20 18 16 15 15 15 16 17 20 21 22 22 21 21 20 19 18
53 51 49 48 50 53 50 45 44 43 39 37 35 33 31 28 25 25 26 23 20 22 25 26 26 25 21 19 17 15 15 16 18 19 19 20 21 22 22 21 20 19
55 52 51 49 49 52 54 50 48 47 43 39 38 37 34 30 28 27 28 26 23 22 23 24 26 27 25 22 19 16 16 16 18 19 19 19 20 21 21 21 20 19
58 54 50 49 47 47 51 52 49 47 45 41 39 39 38 34 31 30 29 27 25 23 23 23 23 25 25 23 21 18 17 17 17 18 18 18 18 19 19 19 19 19
61 57 51 48 47 45 46 49 49 47 46 43 40 38 39 37 33 31 30 28 26 25 24 23 22 22 24 25 23 21 19 17 17 17 18 17 17 18 18 19 19 19
60 59 55 51 47 45 44 46 48 49 47 44 41 39 39 38 34 32 32 31 28 25 25 24 22 22 23 24 24 23 21 19 17 17 17 18 18 18 18 18 19 19
60 59 58 53 48 46 45 44 45 48 47 43 42 41 38 37 36 33 32 32 30 27 25 25 24 23 23 24 25 24 22 20 18 17 17 18 18 17 17 18 18 19
60 59 58 56 51 47 46 45 44 46 46 43 42 42 40 39 38 36 34 33 32 29 27 26 25 25 25 25 26 26 24 22 19 18 18 18 17 17 18 19 19 20
58 58 57 56 54 48 45 45 45 45 45 44 42 42 43 42 40 38 36 35 34 31 30 29 28 27 27 27 28 28 27 25 22 20 20 18 18 19 19 19 20 20
56 56 56 55 53 49 45 44 44 43 43 43 42 43 45 44 40 38 36 35 35 34 32 32 31 30 30 29 30 31 30 28 25 24 22 20 19 20 20 20 20 20
54 54 55 53 51 49 47 45 45 44 41 40 43 45 45 44 41 38 34 34 36 35 32 32 33 31 29 28 29 30 31 30 28 25 24 22 21 21 20 19 20 21
54 53 51 47 45 48 49 47 45 46 43 38 40 44 44 43 43 40 36 35 36 35 32 31 32 32 31 30 28 28 29 31 30 27 25 23 22 20 19 20 20 20
54 52 48 43 38 39 46 49 46 45 46 41 37 38 39 39 39 38 37 34 33 33 33 33 31 31 32 33 32 29 27 28 28 26 24 23 22 20 19 20 20 20
51 51 50 49 44 36 36 42 42 40 43 42 38 38 37 34 35 37 36 34 32 33 35 35 31 30 30 32 32 30 27 27 27 25 24 24 23 23 22 20 19 20
50 50 51 55 56 49 40 39 38 36 38 39 38 40 39 36 37 39 38 36 34 34 36 36 33 31 30 30 32 30 26 26 27 27 27 27 26 25 25 23 22 22
46 50 54 56 58 59 55 49 45 41 40 40 39 41 42 40 39 39 39 37 34 35 37 36 35 33 30 28 32 32 28 27 29 29 29 29 28 26 26 26 25 24
37 44 53 56 55 55 53 51 49 45 42 42 42 42 43 44 42 41 41 38 36 36 37 37 37 36 32 28 31 33 31 29 30 30 30 30 29 27 27 27 27 26
30 37 48 53 52 50 48 46 47 45 41 40 41 42 42 42 42 42 42 40 38 38 38 37 37 37 34 31 31 33 33 31 32 32 31 30 29 28 27 27 28 28
29 34 42 48 50 49 48 46 46 46 43 40 40 41 42 42 40 39 40 40 40 40 40 40 39 38 37 34 33 34 34 34 34 34 33 31 30 28 27 28 28 28
Wind_Direction
248 251 254 257 261 264 264 262 261 262 261 261 265 272 278 279 277 273 272 277 281 284 281 275 268 262 256 249 243 241 238 235 233 230 227 224 220 220 220 219 220 222
243 244 247 250 255 259 260 257 255 254 254 255 256 260 267 274 276 273 268 267 271 275 277 277 271 265 262 256 248 246 246 241 236 231 227 223 219 217 217 218 219 221
242 241 241 242 247 252 254 254 252 250 250 251 251 251 257 265 271 272 266 261 262 266 267 269 271 269 267 262 253 249 247 240 235 230 226 223 219 216 215 216 219 220
244 242 240 238 239 243 247 249 249 249 248 249 249 248 251 257 265 270 266 257 254 257 259 259 263 269 270 267 258 249 243 237 233 230 226 222 218 215 213 214 217 219
247 244 243 240 237 238 242 244 244 245 247 247 247 247 248 251 258 266 266 257 249 250 254 255 255 261 268 271 263 252 244 239 234 228 222 218 215 212 211 212 216 220
252 246 245 244 241 238 239 241 240 240 242 244 244 245 245 247 252 259 264 258 248 245 250 253 253 254 259 265 264 254 246 241 234 226 220 217 214 211 210 212 216 221
258 250 246 246 246 243 241 240 239 241 241 239 240 242 243 242 244 251 258 257 249 244 246 252 254 253 254 258 262 257 247 241 234 227 224 222 218 214 212 214 218 222
258 255 249 246 245 245 245 243 243 249 251 246 242 240 238 237 237 242 248 250 248 245 245 250 253 254 254 256 259 258 249 241 234 229 227 225 223 221 218 218 221 225
258 257 254 251 246 243 243 244 244 249 254 255 253 246 238 234 232 234 240 242 242 243 243 246 249 252 254 255 257 257 251 242 235 232 228 225 227 226 223 223 225 226
258 258 256 255 251 245 242 242 242 244 247 253 257 252 243 235 229 229 234 236 237 238 240 243 246 249 251 253 254 255 251 244 238 234 230 227 228 227 225 225 226 226
256 257 257 255 254 250 244 241 241 244 245 248 254 253 246 238 231 228 230 232 233 235 238 241 244 246 246 247 250 250 248 244 239 234 232 231 230 229 229 228 228 228
254 255 257 257 254 252 247 240 239 242 243 245 249 250 245 240 235 231 229 230 231 233 237 239 240 242 241 241 244 244 243 243 239 236 235 232 229 230 233 233 231 229
252 253 255 257 255 251 247 242 241 242 243 244 245 245 244 243 239 235 232 230 231 232 235 238 238 238 237 236 238 238 238 239 238 236 233 230 229 229 230 231 230 227
249 251 252 254 256 253 250 247 245 243 242 242 241 241 243 242 238 236 233 231 231 231 232 234 234 235 234 232 232 233 232 231 233 233 230 230 231 229 227 228 226 224
245 247 249 250 252 254 253 251 248 244 240 238 238 238 239 239 236 235 232 230 229 229 230 231 231 232 232 229 227 227 227 226 226 226 227 229 229 226 226 226 223 222
242 244 246 248 248 251 253 250 247 244 239 236 237 236 237 240 238 233 231 229 227 226 225 225 226 228 229 228 224 222 221 221 221 221 225 227 224 222 223 223 222 223
240 241 243 245 245 246 248 248 245 242 238 236 237 236 236 238 235 230 230 229 227 227 224 221 222 222 223 225 223 221 220 218 216 219 222 221 219 220 222 222 222 222
238 239 241 243 243 243 246 248 245 240 236 235 236 235 234 230 225 224 226 226 227 228 226 224 223 219 216 215 213 214 218 217 214 215 216 217 219 220 221 221 221 221
237 237 237 239 242 244 246 246 244 238 232 231 234 234 228 222 218 219 222 223 225 227 226 226 224 220 217 214 206 203 210 215 214 212 213 217 216 215 218 222 222 223
235 233 230 228 230 235 236 236 236 234 230 232 235 230 220 216 218 219 221 223 226 227 226 224 222 220 220 218 211 204 205 210 210 208 209 211 205 201 213 224 227 227
231 229 223 220 220 219 219 223 227 229 230 233 235 226 219 222 227 226 223 224 227 229 228 223 219 219 221 218 210 203 201 204 207 208 208 206 201 202 209 217 223 228
229 228 223 220 222 222 220 221 226 230 231 233 233 228 226 233 236 229 223 223 227 229 228 223 219 218 221 221 214 206 203 205 209 211 210 206 206 209 207 206 211 219
228 229 226 221 223 227 231 233 235 234 231 230 231 231 232 237 237 231 227 229 232 232 229 227 224 221 221 222 218 214 213 212 212 213 214 211 211 209 207 206 207 210
228 225 224 222 223 226 231 234 234 233 232 230 230 232 235 237 237 235 235 236 237 235 233 232 229 227 226 224 219 217 216 215 213 213 216 216 214 209 209 211 211 211
228 224 218 219 221 224 227 228 227 228 230 229 227 228 231 233 236 238 238 239 238 235 234 233 229 228 229 226 220 218 217 214 212 211 213 215 214 212 213 217 218 217
222 228 222 219 220 222 225 227 227 228 228 226 226 225 225 227 232 237 239 240 238 234 233 232 229 229 231 227 221 218 218 216 213 212 212 213 214 215 216 219 222 221